Regional Weather Roundup
Issued by NWS

Home | Current Version | Previous Version | Text Only | Print | Product List | Glossary On
Versions: 1 2 3 4 5 6 7 8 9 10 11 12 13 14 15 16 17 18 19 20 21 22 23 24 25 26 27
000
ASUS46 KSEW 291210
RWRWA

WASHINGTON REGIONAL WEATHER ROUNDUP
NATIONAL WEATHER SERVICE SEATTLE WA
500 AM PDT FRI JUL 29 2016

NOTE:"FAIR" INDICATES FEW OR NO CLOUDS BELOW 12,000 FEET WITH NO
SIGNIFICANT WEATHER AND/OR OBSTRUCTIONS TO VISIBILITY.

WAZ505-507>509-291300-
SEATTLE, TACOMA, EVERETT, AND VICINITY

CITY           SKY/WX    TMP DP  RH WIND       PRES   REMARKS
EVERETT        CLEAR     59  54  83 CALM      30.04R
6HR MIN TEMP:  59; 6HR MAX TEMP:  67;

BOEING FIELD   CLEAR     64  56  75 N3        30.01S
6HR MIN TEMP:  64; 6HR MAX TEMP:  74;

RENTON         CLEAR     62  59  90 CALM      30.01S
6HR MIN TEMP:  62; 6HR MAX TEMP:  74;

SEATAC AIRPORT CLEAR     63  60  90 NW3       30.03S
6HR MIN TEMP:  63; 6HR MAX TEMP:  75;

JBLM-MCCHORD   CLEAR     58  58 100 S1        30.02S
6HR MIN TEMP:  57; 6HR MAX TEMP:  73;

PUYALLUP       DRIZZLE   55  55 100 CALM      30.02S
BREMERTON      CLEAR     55  52  88 CALM      30.04S
6HR MIN TEMP:  55; 6HR MAX TEMP:  72;

JBLM-FT LEWIS  CLEAR     60  57  91 SE2       30.01S
6HR MIN TEMP:  59; 6HR MAX TEMP:  74;

TACOMA NARROWS CLEAR     63  57  81 CALM      30.03S
6HR MIN TEMP:  62; 6HR MAX TEMP:  72;

$$

WAZ001-503-506-510-514-515-291300-
NORTH INTERIOR

CITY           SKY/WX    TMP DP  RH WIND       PRES   REMARKS
BELLINGHAM     CLEAR     62  59  90 S3        30.01S
6HR MIN TEMP:  61; 6HR MAX TEMP:  69;

FRIDAY HARBOR  CLEAR     53  51  93 CALM      30.03S
6HR MIN TEMP:  52; 6HR MAX TEMP:  55;

EASTSOUND      CLEAR     64  59  82 NW3       30.01R
PORT ANGELES   CLEAR     55  52  89 CALM      30.02F
6HR MIN TEMP:  55; 6HR MAX TEMP:  59;

EDIZ HOOK      FAIR      55  53  94 NW3       30.02F
6HR MIN TEMP:  53; 6HR MAX TEMP:  58;

PORT TOWNSEND  FAIR      52  52 100 CALM      30.03S
NAS WHIDBEY    CLEAR     55  50  83 CALM      30.06S
6HR MIN TEMP:  54; 6HR MAX TEMP:  60;

ARLINGTON      CLEAR     54  46  76 CALM      30.04R
6HR MIN TEMP:  54; 6HR MAX TEMP:  64;

BURLINGTON     CLEAR     57  57 100 CALM      30.02S FOG
$$

WAZ020-022-039-040-504-511-512-291300-
SOUTHWEST INTERIOR

CITY           SKY/WX    TMP DP  RH WIND       PRES   REMARKS
SHELTON        CLEAR     58  55  90 W6        30.01S
6HR MIN TEMP:  58; 6HR MAX TEMP:  73;

OLYMPIA        CLEAR     59  56  89 CALM      30.02R
6HR MIN TEMP:  57; 6HR MAX TEMP:  75;

CHEHALIS       FAIR      59  59 100 CALM      30.01F
KELSO          CLEAR     61  58  90 N6        30.01S
6HR MIN TEMP:  61; 6HR MAX TEMP:  69;

VANCOUVER      CLEAR     65  56  72 CALM      29.96F
6HR MIN TEMP:  63; 6HR MAX TEMP:  77;

SCAPPOOSE, OR  CLEAR     62  55  77 CALM      29.96S
6HR MIN TEMP:  60; 6HR MAX TEMP:  78;

PORTLAND, OR   CLEAR     67  57  70 N3        29.97S
6HR MIN TEMP:  67; 6HR MAX TEMP:  78;

$$

WAZ021-516-517-291300-
WASHINGTON COAST

CITY           SKY/WX    TMP DP  RH WIND       PRES   REMARKS
FORKS          FOG       54  54 100 CALM      30.02S VSB 1/2
6HR MIN TEMP:  52; 6HR MAX TEMP:  57;

HOQUIAM        CLOUDY    54  54 100 NW3       30.04S FOG
6HR MIN TEMP:  53; 6HR MAX TEMP:  59;

ASTORIA, OR    CLOUDY    61  58  90 NW8       30.03F
6HR MIN TEMP:  60; 6HR MAX TEMP:  61;

$$

WAZ019-023-024-040-518-519-291300-
CASCADE MOUNTAINS AND COLUMBIA GORGE

CITY           SKY/WX    TMP DP  RH WIND       PRES   REMARKS
STAMPEDE PASS  CLEAR     58  49  72 VRB6      30.14S
6HR MIN TEMP:  57; 6HR MAX TEMP:  61;

TROUTDALE, OR  CLEAR     63  59  87 CALM      29.97S
6HR MIN TEMP:  63; 6HR MAX TEMP:  77;

THE DALLES, OR CLEAR     72  58  61 W3        29.90S
6HR MIN TEMP:  71; 6HR MAX TEMP:  84;

$$

WAZ026-027-041>044-520-521-291300-
EAST SLOPES

CITY           SKY/WX    TMP DP  RH WIND       PRES   REMARKS
OMAK           CLEAR     72  51  47 N12       29.95S
6HR MIN TEMP:  69; 6HR MAX TEMP:  81;

WENATCHEE      CLEAR     73  56  54 W8        29.95S
6HR MIN TEMP:  73; 6HR MAX TEMP:  85;

ELLENSBURG     CLEAR     63  51  65 NE6       29.98S
6HR MIN TEMP:  63; 6HR MAX TEMP:  77;

YAKIMA         CLEAR     72  46  39 NW6       29.94S
6HR MIN TEMP:  72; 6HR MAX TEMP:  85;

$$

WAZ028-034-035-291300-
COLUMBIA BASIN

CITY           SKY/WX    TMP DP  RH WIND       PRES   REMARKS
EPHRATA        CLEAR     78  54  43 N8        29.91S
6HR MIN TEMP:  76; 6HR MAX TEMP:  86;

MOSES LAKE     CLEAR     66  50  56 CALM      29.92S
6HR MIN TEMP:  66; 6HR MAX TEMP:  81;

PASCO          CLEAR     62  56  80 CALM      29.89S
6HR MIN TEMP:  61; 6HR MAX TEMP:  74;

HERMISTON, OR  CLEAR     64  51  62 SE5       29.90R
6HR MIN TEMP:  64; 6HR MAX TEMP:  78;

$$

WAZ036>038-291300-
NORTHEAST WASHINGTON

CITY           SKY/WX    TMP DP  RH WIND       PRES   REMARKS
SPOKANE GEIGER PTCLDY    69  51  52 E6        30.00R
6HR MIN TEMP:  69; 6HR MAX TEMP:  78;

SPOKANE FELTS  CLEAR     64  53  67 NE3       29.99S
6HR MIN TEMP:  62; 6HR MAX TEMP:  74;

FAIRCHILD AFB  CLEAR     65  48  55 E5        30.00R
6HR MIN TEMP:  64; 6HR MAX TEMP:  75;

COEURDALENE,ID CLEAR     63  52  67 E6        29.99S
6HR MIN TEMP:  61; 6HR MAX TEMP:  72;

DEER PARK      CLEAR     61  51  70 MISG      30.00S
6HR MIN TEMP:  57; 6HR MAX TEMP:  67;

$$

WAZ029>033-291300-
SOUTHEAST WASHINGTON

CITY           SKY/WX    TMP DP  RH WIND       PRES   REMARKS
PULLMAN        CLEAR     57  49  74 CALM      30.02R
6HR MIN TEMP:  57; 6HR MAX TEMP:  66;

LEWISTON, ID   CLEAR     72  53  51 NE3       29.95R
6HR MIN TEMP:  71; 6HR MAX TEMP:  83;

WALLA WALLA    CLEAR     71  49  45 E7        29.92S
6HR MIN TEMP:  70; 6HR MAX TEMP:  80;

PENDLETON, OR  CLEAR     67  48  50 S6        29.94S
6HR MIN TEMP:  65; 6HR MAX TEMP:  79;

$$




USA.gov is the U.S. government's official web portal to all federal, state and local government web resources and services.